User: anonymous   Login
Location: Columbia
(38.9520°N, 92.3340°W)
Time: 01:47:38
(UTC-05:00)
Language:

Cosmos 2219 Rocket - Orbit

View from above orbital plane
View from above orbital plane
View from above satellite
View from above satellite

Ground track
Ground track

The orbit data is extracted from the following two-line orbital elements,

1 22220U 92076B   15187.39088495 -.00000121  00000-0 -36630-4 0  9998
2 22220 071.0005 117.4850 0015095 276.3423 214.6261 14.16369533169982
Epoch (UTC): 06 July 2015 09:22:52
Eccentricity: 0.0015095
inclination: 71.0005°
perigee height: 827 km
apogee height: 848 km
right ascension of ascending node: 117.4850°
argument of perigee: 276.3423°
revolutions per day: 14.16369533
mean anomaly at epoch: 214.6261°
orbit number at epoch: 16998

The dashed part of the orbit path shows where the satellite is in the earth's shadow,  

DLR